Location: Praha
(50.0830°N, 14.4670°E)
Time: 01:59:34
(UTC+02:00)

ISS - Pass Details

Date: 18 May 2024
Orbit: 409 x 414 km, 51.6° (Epoch: 23 May)

Event Time Altitude Azimuth Distance (km) Brightness Sun altitude
Rises 21:49:07 0° 273° (W) 2,349 0.8 -8.6°
Reaches altitude 10° 21:51:13 10° 276° (W) 1,486 -0.2 -8.8°
Maximum altitude 21:54:32 64° 359° (N) 462 -3.3 -9.2°
Drops below altitude 10° 21:57:51 10° 82° (E) 1,483 -1.3 -9.5°
Enters shadow 21:59:11 - 85° (E) 2,027 -0.6 -9.7°
